Printer-friendly version
Follow the MPC on Twitter Follow the MPC on Facebook The MPC blog
Minor Planet Center

MPEC 2000-S63 : 2000 SQ43

The following Minor Planet Electronic Circular may be linked-to from your own Web pages, but must not otherwise be redistributed electronically.

A form allowing access to any MPEC is at the bottom of this page.


Read MPEC 2000-S62 Read MPEC 2000-S64


M.P.E.C. 2000-S63                                Issued 2000 Sept. 28, 19:01 UT

     The Minor Planet Electronic Circulars contain information on unusual
         minor planets and routine data on comets.  They are published
   on behalf of Commission 20 of the International Astronomical Union by the
          Minor Planet Center, Smithsonian Astrophysical Observatory,
                          Cambridge, MA 02138, U.S.A.

             Prepared using the Tamkin Foundation Computer Network

                              MPC@CFA.HARVARD.EDU
          URL http://cfa-www.harvard.edu/iau/mpc.html  ISSN 1523-6714

                                   2000 SQ43

Observations:
     K00S43Q  C2000 09 24.41609 03 13 20.15 +11 26 08.9          19.2        704
     K00S43Q  C2000 09 24.43057 03 13 19.76 +11 25 57.6          19.4        704
     K00S43Q  C2000 09 24.44511 03 13 19.34 +11 25 48.5          19.2        704
     K00S43Q  C2000 09 24.46082 03 13 18.94 +11 25 36.8          20.1        704
     K00S43Q  C2000 09 24.47549 03 13 18.69 +11 25 26.9          19.4        704
     K00S43Q* C2000 09 25.61730 03 12 51.89 +11 11 58.5          19.7        608
     K00S43Q  C2000 09 25.62801 03 12 51.59 +11 11 50.9          20.1        608
     K00S43Q  C2000 09 25.63864 03 12 51.24 +11 11 42.9          19.8        608
     K00S43Q  C2000 09 27.02255 03 12 13.37 +10 54 59.3          18.8 R      046
     K00S43Q  C2000 09 27.02420 03 12 13.28 +10 54 58.5                      046
     K00S43Q  C2000 09 27.02553 03 12 13.28 +10 54 56.2                      046
     K00S43Q  C2000 09 27.02902 03 12 13.12 +10 54 55.6                      046
     K00S43Q  C2000 09 27.14142 03 12 09.18 +10 53 32.6                      557
     K00S43Q  C2000 09 27.15047 03 12 08.87 +10 53 26.3                      557
     K00S43Q  C2000 09 27.15574 03 12 08.74 +10 53 22.6                      557
     K00S43Q  C2000 09 27.15758 03 12 08.55 +10 53 20.9                      557
     K00S43Q  C2000 09 28.07924 03 11 38.98 +10 42 14.4                      118
     K00S43Q  C2000 09 28.08620 03 11 38.76 +10 42 08.9          19.0 R      118
     K00S43Q  C2000 09 28.09318 03 11 38.45 +10 42 03.2                      118

Observer details:
046 Klet.  Observers J. Ticha, M. Tichy, M. Kocer, P. Jelinek.  0.57-m f/5.2
    reflector + CCD.
118 Modra.  Observers A. Galad, P. Koleny.  0.6-m f/5.5 reflector + CCD.
557 Ondrejov.  Observers P. Pravec, P. Kusnirak.  0.65-m f/3.6 reflector + CCD.
608 Haleakala-NEAT/MSSS.  Observers E. F. Helin, S. Pravdo, K. Lawrence,
    P. Kervin, D. Talent, R. Maeda, P. Tanner.  1.2-m reflector + CCD.
704 Lincoln Laboratory ETS, New Mexico.  Observers M. Blythe, F. Shelly,
    M. Bezpalko, M. Elowitz, R. Huber, L. Manguso.  Measurers J. Stuart,
    R. Sayer, J. B. Evans, H. Viggh.  1.0-m f/2.15 reflector + CCD.

Orbital elements:
2000 SQ43
Epoch 2000 Sept. 13.0 TT = JDT 2451800.5                Spahr
M  18.15723              (2000.0)            P               Q
n   0.29939955     Peri.  143.49019     +0.70485130     +0.70922413
a   2.2129348      Node   171.29779     -0.67027986     +0.67219040
e   0.4838538      Incl.    5.16850     -0.23218430     +0.21251164
P   3.29           H   18.6           G   0.15
From 19 observations 2000 Sept. 24-28.

Ephemeris:
2000 SQ43                a,e,i = 2.21, 0.48, 5                   q = 1.1422
Date    TT    R. A. (2000) Decl.     Delta      r     Elong.  Phase     V
2000 09 23    03 13.77   +11 42.9    0.489    1.373   130.8    33.6    19.1
2000 10 03    03 08.21   +09 42.2    0.503    1.431   142.1    25.5    19.1
2000 10 13    02 57.97   +07 42.0    0.528    1.491   154.2    16.9    19.0
2000 10 23    02 45.39   +05 56.9    0.570    1.553   165.5     9.2    18.9
2000 11 02    02 33.04   +04 39.5    0.630    1.617   169.9     6.2    19.1
2000 11 12    02 23.11   +03 56.7    0.711    1.680   162.1    10.4    19.6
2000 11 22    02 16.70   +03 47.3    0.810    1.744   151.8    15.5    20.2
2000 12 02    02 14.09   +04 06.4    0.928    1.808   141.7    19.7    20.7
2000 12 12    02 15.04   +04 47.3    1.060    1.871   132.3    22.9    21.2
2000 12 22    02 19.03   +05 43.6    1.206    1.933   123.6    25.1    21.6

Timothy B. Spahr             (C) Copyright 2000 MPC           M.P.E.C. 2000-S63

Read MPEC 2000-S62 Read MPEC 2000-S64


MPEC number:

Enter an MPEC number in one of the following forms:

  • 1997-B01 (the full form)
  • J97B01 (the packed version of the full form)
  • B01 (the abbreviated form)

Valid HTML 4.01!